Find Starlink 1267

NORAD ID: 45384 Int'l Des: 2020-019 Owner: SPXS Country: US Constellation: starlink operational
LEOCIRCULAR

リアルタイム位置

3D地球を読み込み中...

Starlink 1267について

説明を読み込み中...

次回通過

Passes for default location (London). Set your location on the main map for personalized predictions.

高度履歴

Loading altitude history...

軌道要素

1 45384U 20019AA 26123.64334127 .00110536 00000-0 13342-2 0 9991
2 45384 53.0463 221.3941 0006198 348.1488 11.9378 15.59912931338838
Epoch: May 3, 2026 • Age: 13 hours

現在のステータス

高度 396.1 km
速度 7.67 km/s
衛星直下点 -18.41°S, 121.94°E
打ち上げ日 Mar 18, 2020
運用期間 6.1 years
タイプ internet

技術仕様

分類 Payload
質量 260.00 kg
乾燥質量 248.00 kg
総質量 260.00 kg
長さ 0.20 m
直径 2.80 m
スパン 9.00 m
形状 Box + pan
製造者 SPXS
バスタイプ Starlink
フェーズステータス In Orbit
所有者/国 SPXS/US

Most Searched